Regional Weather Roundup
Issued by NWS Charleston, WV

Home | Current Version | Previous Version | Graphics & Text | Print | Product List | Glossary On
Versions: 1 2 3 4 5 6 7 8 9 10 11 12 13 14 15 16 17 18 19 20 21 22 23 24 25 26 27
000
ASUS41 KRLX 222210
RWRRLX
West Virginia Regional Weather Roundup
National Weather Service Charleston WV
600 PM EDT SAT JUL 22 2017

Note: "fair" indicates few or no clouds below 12,000 feet with no
significant weather and/or obstructions to visibility.

WVZ003-222300-
Northern Panhandle of West Virginia

CITY           SKY/WX    TMP DP  RH WIND       PRES   REMARKS
WHEELING       CLOUDY    72  68  87 CALM      29.81F
$$

WVZ009-222300-
Northwest West Virginia

CITY           SKY/WX    TMP DP  RH WIND       PRES   REMARKS
PARKERSBURG    TSTM      71  70  96 S9        29.84F FOG
$$

WVZ006-222300-
Western West Virginia

CITY           SKY/WX    TMP DP  RH WIND       PRES   REMARKS
HUNTINGTON     CLOUDY    89  73  59 W6        29.81R HX  97
$$

WVZ015-222300-
West Central West Virginia

CITY           SKY/WX    TMP DP  RH WIND       PRES   REMARKS
CHARLESTON     MOSUNNY   90  72  55 SW10      29.82R HX  97
$$

WVZ022-031-222300-
North Central West Virginia

CITY           SKY/WX    TMP DP  RH WIND       PRES   REMARKS
CLARKSBURG     CLOUDY    74  69  85 SE5       29.83F
MORGANTOWN     CLOUDY    75  71  87 VRB3      29.83F
$$

WVZ025-035-042-045-222300-
Southern West Virginia

CITY           SKY/WX    TMP DP  RH WIND       PRES   REMARKS
BECKLEY        CLOUDY    86  65  49 SW9       29.93F
LOGAN            N/A     88  72  58 CALM      29.88R
BLUEFIELD      SUNNY     86  64  47 SW13G20   29.98F
LEWISBURG      MOSUNNY   87  66  49 W7        29.92F
$$

WVZ047-222300-
Northern Mountains of West Virginia

CITY           SKY/WX    TMP DP  RH WIND       PRES   REMARKS
ELKINS         LGT RAIN  72  68  87 N3        29.90F FOG
$$

WVZ052-222300-
Eastern Panhandle of West Virginia

CITY           SKY/WX    TMP DP  RH WIND       PRES   REMARKS
MARTINSBURG    LGT RAIN  73  71  93 S8        29.80F
PETERSBURG     LGT RAIN  73  71  95 CALM      29.85F
$$




USA.gov is the U.S. government's official web portal to all federal, state and local government web resources and services.